When you browse on this site, cookies collect data to enhance your experience and personalize the content and advertising you see.
Visit our Privacy Policy to learn more. By continuing to use the site, you agree to this use of cookies and data.
  • In Austria
  • List of Countries
  • For 7 days
  • Water Temperature
  • Weather Map
  • News
  • Weather Widgets
  • user-avatar
    Login

    Hourly Weather Stockton

    Today, 23 August, Friday

    Time Temperature Precipitation Wind Pressure Humidity
    00:00 +23°C° 0 mm 1 mps 754 mmHg 53%
    01:00 +21°C° 0 mm 0 mps 755 mmHg 54%
    02:00 +22°C° 0 mm 1 mps 754 mmHg 54%
    03:00 +22°C° 0 mm 1 mps 754 mmHg 55%
    04:00 +21°C° 0 mm 1 mps 754 mmHg 55%
    05:00 +22°C° 0 mm 1 mps 755 mmHg 51%
    06:00 +23°C° 0 mm 1 mps 755 mmHg 47%
    07:00 +25°C° 0 mm 1 mps 756 mmHg 43%
    08:00 +28°C° 0 mm 1 mps 756 mmHg 36%
    09:00 +31°C° 0 mm 1 mps 755 mmHg 29%
    10:00 +35°C° 0 mm 2 mps 755 mmHg 22%
    11:00 +38°C° 0 mm 2 mps 755 mmHg 20%
    12:00 +40°C° 0 mm 2 mps 755 mmHg 18%
    13:00 +42°C° 0 mm 2 mps 755 mmHg 15%
    14:00 +42°C° 0 mm 3 mps 755 mmHg 17%
    15:00 +42°C° 0 mm 4 mps 754 mmHg 19%
    16:00 +41°C° 0 mm 5 mps 754 mmHg 20%
    17:00 +37°C° 0 mm 5 mps 755 mmHg 28%
    18:00 +33°C° 0 mm 5 mps 755 mmHg 35%
    19:00 +29°C° 0 mm 5 mps 756 mmHg 42%
    20:00 +27°C° 0 mm 4 mps 756 mmHg 48%
    21:00 +25°C° 0 mm 3 mps 756 mmHg 54%
    22:00 +23°C° 0 mm 2 mps 757 mmHg 59%
    23:00 +21°C° 0 mm 2 mps 757 mmHg 62%

    Tomorrow, 24 August, Saturday

    Time Temperature Precipitation Wind Pressure Humidity
    00:00 +20°C° 0 mm 2 mps 757 mmHg 64%
    01:00 +21°C° 0 mm 1 mps 757 mmHg 66%
    02:00 +20°C° 0 mm 1 mps 757 mmHg 68%
    03:00 +20°C° 0 mm 1 mps 758 mmHg 71%
    04:00 +19°C° 0 mm 1 mps 758 mmHg 73%
    05:00 +20°C° 0 mm 1 mps 758 mmHg 69%
    06:00 +21°C° 0 mm 1 mps 759 mmHg 64%
    07:00 +22°C° 0 mm 1 mps 759 mmHg 60%
    08:00 +25°C° 0 mm 1 mps 759 mmHg 51%
    09:00 +28°C° 0 mm 2 mps 759 mmHg 42%
    10:00 +31°C° 0 mm 2 mps 759 mmHg 33%
    11:00 +35°C° 0 mm 2 mps 759 mmHg 29%
    12:00 +37°C° 0 mm 2 mps 759 mmHg 25%
    13:00 +39°C° 0 mm 3 mps 758 mmHg 21%
    14:00 +39°C° 0 mm 3 mps 758 mmHg 21%
    15:00 +40°C° 0 mm 4 mps 758 mmHg 21%
    16:00 +40°C° 0 mm 5 mps 758 mmHg 20%
    17:00 +36°C° 0 mm 5 mps 758 mmHg 26%
    18:00 +32°C° 0 mm 5 mps 758 mmHg 31%
    19:00 +28°C° 0 mm 5 mps 759 mmHg 36%
    20:00 +26°C° 0 mm 4 mps 759 mmHg 41%
    21:00 +24°C° 0 mm 3 mps 759 mmHg 46%
    22:00 +23°C° 0 mm 2 mps 760 mmHg 51%
    23:00 +21°C° 0 mm 2 mps 760 mmHg 53%

    Day after tomorrow, 25 August, Sunday

    Time Temperature Precipitation Wind Pressure Humidity
    00:00 +20°C° 0 mm 2 mps 760 mmHg 55%
    01:00 +21°C° 0 mm 1 mps 760 mmHg 57%
    02:00 +20°C° 0 mm 1 mps 760 mmHg 58%
    03:00 +20°C° 0 mm 1 mps 760 mmHg 60%
    04:00 +19°C° 0 mm 1 mps 761 mmHg 62%
    05:00 +20°C° 0 mm 1 mps 761 mmHg 57%
    06:00 +22°C° 0 mm 1 mps 761 mmHg 52%
    07:00 +23°C° 0 mm 1 mps 761 mmHg 48%
    08:00 +26°C° 0 mm 1 mps 761 mmHg 40%
    09:00 +30°C° 0 mm 1 mps 761 mmHg 31%
    10:00 +33°C° 0 mm 1 mps 760 mmHg 23%
    11:00 +36°C° 0 mm 2 mps 760 mmHg 21%
    12:00 +38°C° 0 mm 2 mps 760 mmHg 18%
    13:00 +39°C° 0 mm 3 mps 760 mmHg 16%
    14:00 +40°C° 0 mm 3 mps 759 mmHg 15%
    15:00 +41°C° 0 mm 4 mps 759 mmHg 15%
    16:00 +41°C° 0 mm 5 mps 758 mmHg 15%
    17:00 +37°C° 0 mm 4 mps 759 mmHg 16%
    18:00 +34°C° 0 mm 4 mps 759 mmHg 18%
    19:00 +30°C° 0 mm 4 mps 759 mmHg 19%
    20:00 +28°C° 0 mm 3 mps 759 mmHg 23%
    21:00 +26°C° 0 mm 3 mps 760 mmHg 27%
    22:00 +24°C° 0 mm 2 mps 760 mmHg 31%
    23:00 +23°C° 0 mm 2 mps 760 mmHg 34%

    26 August, Monday

    Time Temperature Precipitation Wind Pressure Humidity
    00:00 +21°C° 0 mm 2 mps 759 mmHg 37%
    01:00 +21°C° 0 mm 1 mps 759 mmHg 39%
    02:00 +20°C° 0 mm 1 mps 759 mmHg 41%
    03:00 +20°C° 0 mm 1 mps 759 mmHg 44%
    04:00 +19°C° 0 mm 1 mps 759 mmHg 46%
    05:00 +20°C° 0 mm 1 mps 759 mmHg 44%
    06:00 +21°C° 0 mm 1 mps 759 mmHg 43%
    07:00 +21°C° 0 mm 2 mps 759 mmHg 41%
    08:00 +25°C° 0 mm 2 mps 759 mmHg 33%
    09:00 +29°C° 0 mm 2 mps 759 mmHg 24%
    10:00 +33°C° 0 mm 3 mps 758 mmHg 16%
    11:00 +36°C° 0 mm 3 mps 758 mmHg 14%
    12:00 +38°C° 0 mm 3 mps 757 mmHg 12%
    13:00 +42°C° 0 mm 3 mps 757 mmHg 10%
    14:00 +42°C° 0 mm 3 mps 756 mmHg 10%
    15:00 +42°C° 0 mm 4 mps 756 mmHg 10%
    16:00 +43°C° 0 mm 4 mps 756 mmHg 9%
    17:00 +38°C° 0 mm 4 mps 756 mmHg 12%
    18:00 +35°C° 0 mm 4 mps 756 mmHg 14%
    19:00 +32°C° 0 mm 4 mps 756 mmHg 16%
    20:00 +29°C° 0 mm 3 mps 756 mmHg 20%
    21:00 +27°C° 0 mm 3 mps 756 mmHg 24%
    22:00 +25°C° 0 mm 2 mps 757 mmHg 27%
    23:00 +24°C° 0 mm 2 mps 757 mmHg 29%

    27 August, Tuesday

    Time Temperature Precipitation Wind Pressure Humidity
    00:00 +23°C° 0 mm 2 mps 756 mmHg 31%
    01:00 +23°C° 0 mm 1 mps 756 mmHg 32%
    02:00 +22°C° 0 mm 1 mps 756 mmHg 34%
    03:00 +21°C° 0 mm 1 mps 756 mmHg 36%
    04:00 +21°C° 0 mm 1 mps 756 mmHg 37%
    05:00 +22°C° 0 mm 1 mps 756 mmHg 36%
    06:00 +23°C° 0 mm 1 mps 756 mmHg 35%
    07:00 +23°C° 0 mm 2 mps 756 mmHg 34%
    08:00 +27°C° 0 mm 2 mps 756 mmHg 28%
    09:00 +30°C° 0 mm 2 mps 756 mmHg 22%
    10:00 +35°C° 0 mm 2 mps 756 mmHg 15%
    11:00 +37°C° 0 mm 2 mps 755 mmHg 13%
    12:00 +40°C° 0 mm 2 mps 755 mmHg 10%
    13:00 +42°C° 0 mm 2 mps 755 mmHg 8%
    14:00 +43°C° 0 mm 3 mps 754 mmHg 8%
    15:00 +43°C° 0 mm 4 mps 754 mmHg 7%
    16:00 +43°C° 0 mm 5 mps 754 mmHg 7%
    17:00 +40°C° 0 mm 5 mps 754 mmHg 10%
    18:00 +35°C° 0 mm 4 mps 754 mmHg 13%
    19:00 +32°C° 0 mm 4 mps 755 mmHg 16%
    20:00 +29°C° 0 mm 3 mps 755 mmHg 21%
    21:00 +27°C° 0 mm 3 mps 755 mmHg 25%
    22:00 +25°C° 0 mm 2 mps 756 mmHg 29%
    23:00 +24°C° 0 mm 2 mps 756 mmHg 31%

    28 August, Wednesday

    Time Temperature Precipitation Wind Pressure Humidity
    00:00 +23°C° 0 mm 1 mps 756 mmHg 33%
    01:00 +22°C° 0 mm 1 mps 756 mmHg 35%
    02:00 +22°C° 0 mm 1 mps 756 mmHg 37%
    03:00 +22°C° 0 mm 1 mps 756 mmHg 38%
    04:00 +21°C° 0 mm 1 mps 756 mmHg 40%
    05:00 +22°C° 0 mm 1 mps 756 mmHg 40%
    06:00 +23°C° 0 mm 2 mps 756 mmHg 39%
    07:00 +24°C° 0 mm 2 mps 756 mmHg 39%
    08:00 +27°C° 0 mm 2 mps 756 mmHg 33%
    09:00 +30°C° 0 mm 3 mps 756 mmHg 27%
    10:00 +34°C° 0 mm 3 mps 756 mmHg 21%
    11:00 +37°C° 0 mm 3 mps 756 mmHg 19%
    12:00 +40°C° 0 mm 4 mps 756 mmHg 18%
    13:00 +42°C° 0 mm 4 mps 755 mmHg 16%
    14:00 +41°C° 0 mm 5 mps 755 mmHg 16%
    15:00 +41°C° 0 mm 5 mps 755 mmHg 17%
    16:00 +41°C° 0 mm 6 mps 755 mmHg 18%
    17:00 +36°C° 0 mm 5 mps 755 mmHg 23%
    18:00 +33°C° 0 mm 5 mps 756 mmHg 28%
    19:00 +29°C° 0 mm 5 mps 756 mmHg 33%
    20:00 +27°C° 0 mm 4 mps 756 mmHg 40%
    21:00 +25°C° 0 mm 3 mps 757 mmHg 48%
    22:00 +22°C° 0 mm 3 mps 758 mmHg 55%
    23:00 +21°C° 0 mm 2 mps 758 mmHg 59%
    Show more